sat.trackr.live / text

‹ back to catalog

STARLINK-34433

NORAD 64448 · 2025-130L

PAYLOAD ACTIVE UNKNOWN

§ Identity

Operator
Country
US
Launch date
2025-06-18
Launch site
AFETR
Launch vehicle
Mass (kg)
RCS (m²)

Purposes: comms

External: N2YO · Heavens-Above · Gunter

§ Orbital elements

Epoch: 2026-05-25T03:21:50.828832Z

Period
94.10 min
Inclination
53.1576°
Eccentricity
0.0001212
Mean motion
15.30214607 rev/d
Perigee alt
474.3 km
Apogee alt
476.0 km
Semi-major
6,853.3 km
B*
4.7669e-4
RAAN
93.7372°
Arg perigee
84.8296°
Mean anomaly
275.2843°
Rev number
5,240

§ Raw data

STARLINK-344331 64448U 25130L   26145.14017163  .00013792  00000+0  47669-3 0  99942 64448  53.1576  93.7372 0001212  84.8296 275.2843 15.30214607 52400

JSON: /api/v1/satellites/64448 · /tle

For live sub-satellite position, see the globe view (requires WebGL).

§ Visibility from observer

Set your observer location to see the next 7 days of passes ≥ 10°. The values pass through the URL so the page stays shareable.

No JS? Fill the form by hand. The geolocation button needs JavaScript.